Tracking 30923 objects as of 1-Jul-2025
HD Live streaming from Space Station
objects crossing your sky now

STARLINK-3567

Track STARLINK-3567 now!
10-day predictions
STARLINK-3567 is classified as:


NORAD ID: 51871
Int'l Code: 2022-022V
Perigee: 546.0 km
Apogee: 547.8 km
Inclination: 53.2 °
Period: 95.4 minutes
Semi major axis: 6917 km
RCS: Unknown
Launch date: March 3, 2022
Source: United States (US)
Launch site: AIR FORCE EASTERN TEST RANGE (AFETR)
Your satellite tracking list
Your tracking list is empty




NASA's NSSDC Master Catalog

Two Line Element Set (TLE):
1 51871U 22022V   25181.90213478  .00000497  00000-0  49285-4 0  9993
2 51871  53.2185  59.4389 0001283  88.8373 271.2766 15.08839995185212
Source of the keplerian elements: AFSPC